Flag Weather past 2 weeks in Greensboro, North Carolina, U.S.A.

Now
44 °F

Passing clouds.


Feels Like: 42 °F
Forecast: 41 / 60 °F
Wind: 5 mph from North

Location: Piedmont Triad International Airport

Current Time: Oct 31, 2014 at 3:54:52 AM

Latest Report: Oct 31, 2014 at 2:54 AM


Visibility: 10 mi

Pressure: 29.98 "Hg

Humidity: 82%

Dew point: 39 °F

Location of GreensboroLocation

Historic Weather in Greensboro — Graph

°F

Greensboro temperature yesterday

Maximum temperature yesterday: 65 °F (at 2:54 PM)
Minimum temperature yesterday: 48 °F (at 6:54 AM)
Average temperature yesterday: 55 °F

Past Weeks' High & Low Weather Summary

 TemperatureHumidityPressure
High82 °F (Oct 28, 3:54 PM)97% (Oct 18, 6:54 AM)30.14 "Hg (Oct 18, 6:54 AM)
Low39 °F (Oct 25, 6:54 AM)19% (Oct 26, 4:54 PM)29.75 "Hg (Oct 18, 4:54 AM)
Average58 °F62%29.96 "Hg
* Reported Oct 16 2:54 AM — Oct 31 2:54 AM, Greensboro, Weather by CustomWeather, © 2014

Note: Actual official high and low records may vary slightly from our data, if they occured in-between our weather recording intervals... More about our weather records

Advertising

Greensboro weather history for previous 24 hours

 ConditionsComfort  
Time TempWeatherWind HumidityBarometerVisibility
2:54 AM
Oct 31
44 °FPassing clouds.5 mph82%29.98 "Hg10 mi
1:54 AM45 °FPassing clouds.6 mph80%29.98 "Hg10 mi
12:54 AM46 °FPassing clouds.7 mph77%29.99 "Hg10 mi
11:54 PM
Oct 30
48 °FClear.6 mph71%29.99 "Hg10 mi
10:54 PM49 °FClear.3 mph71%29.99 "Hg10 mi
9:54 PM51 °FClear.5 mph63%29.98 "Hg10 mi
8:54 PM52 °FClear.3 mph64%29.98 "Hg10 mi
7:54 PM55 °FClear.3 mph53%29.98 "Hg10 mi
6:54 PM57 °FSunny.3 mph47%29.98 "Hg10 mi
5:54 PM61 °FSunny.3 mph39%29.96 "Hg10 mi
4:54 PM65 °FSunny.No wind33%29.96 "Hg10 mi
3:54 PM65 °FSunny.No wind32%29.96 "Hg10 mi
2:54 PM65 °FPassing clouds.No wind36%29.97 "Hg10 mi
1:54 PM63 °FPassing clouds.5 mph37%30.00 "Hg10 mi
12:54 PM62 °FSunny.8 mph39%30.03 "Hg10 mi
11:54 AM60 °FSunny.6 mph42%30.05 "Hg10 mi
10:54 AM59 °FSunny.7 mph48%30.06 "Hg10 mi
9:54 AM57 °FSunny.5 mph58%30.06 "Hg10 mi
8:54 AM52 °FPassing clouds.6 mph64%30.06 "Hg10 mi
7:54 AM48 °FPassing clouds.No wind71%30.05 "Hg10 mi
6:54 AM48 °FPassing clouds.No wind74%30.03 "Hg10 mi
5:54 AM51 °FPassing clouds.3 mph63%30.02 "Hg10 mi
4:54 AM51 °FPassing clouds.No wind69%30.01 "Hg10 mi
3:54 AM50 °FPassing clouds.No wind93%30.00 "Hg10 mi
Weather by CustomWeather, © 2014

See weather overviewHow to use our weather pages